This is the latest recevied weather packets stored in our database for station/object KC4JY. If no packets are shown the sender has not sent any weather packets the latest 10 day(s).
| Time | Temp. | Humidity | Pressure | Rain* | Wind** | Luminosity | Snow |
|---|---|---|---|---|---|---|---|
| 1777570255 | 17.78° C | 86% | 1008.8 hPa | 0.25 mm | - | - | - |
| 1777569343 | 17.22° C | 86% | 1009.1 hPa | 0.51 mm | - | - | - |
| 1777568435 | 16.67° C | 89% | 1009.4 hPa | 0.51 mm | - | - | - |
| 1777567514 | 16.11° C | 89% | 1009.9 hPa | 0.76 mm | - | - | - |
| 1777566614 | 16.11° C | 88% | 1010.2 hPa | 0.51 mm | - | - | - |
| 1777565771 | 16.11° C | 89% | 1010.3 hPa | 0.25 mm | - | - | - |
| 1777564856 | 16.11° C | 88% | 1010.3 hPa | 0.25 mm | - | - | - |
| 1777563938 | 16.11° C | 87% | 1010.5 hPa | 0.25 mm | - | - | - |
| 1777563038 | 16.11° C | 87% | 1010.6 hPa | 0.25 mm | - | - | - |
| 1777562119 | 16.11° C | 87% | 1010.7 hPa | 0.25 mm | - | - | - |
| 1777561219 | 16.67° C | 84% | 1011.1 hPa | 0.25 mm | - | - | - |
| 1777560370 | 16.67° C | 84% | 1010.8 hPa | 0 mm | - | - | - |
| 1777559458 | 16.67° C | 84% | 1009.8 hPa | 0 mm | - | - | - |
| 1777558545 | 16.67° C | 83% | 1009 hPa | 0 mm | - | - | - |
| 1777557645 | 16.67° C | 85% | 1008.2 hPa | 0 mm | - | - | - |
| 1777556741 | 16.67° C | 85% | 1007.9 hPa | 0 mm | - | - | - |
| 1777555840 | 16.11° C | 86% | 1007.9 hPa | 0 mm | - | - | - |
| 1777554951 | 16.11° C | 88% | 1008.1 hPa | 0 mm | - | - | - |
| 1777554038 | 16.11° C | 89% | 1008.1 hPa | 0 mm | - | - | - |
| 1777553140 | 16.11° C | 91% | 1008.2 hPa | 0 mm | - | - | - |
| 1777552231 | 16.11° C | 92% | 1008.3 hPa | 0 mm | - | - | - |
| 1777551323 | 16.11° C | 92% | 1008.6 hPa | 0 mm | - | - | - |
| 1777550416 | 15.56° C | 93% | 1008.8 hPa | 0 mm | - | - | - |
| 1777549513 | 15.56° C | 93% | 1008.6 hPa | 0 mm | - | - | - |
| 1777548615 | 16.11° C | 93% | 1008.4 hPa | 0 mm | - | - | - |
* Rain latest hour (hover to see other rain measurements)
** Current wind speed in m/s (hover to see current wind gust speed)